Home > Weather > Goslar > Past weeks

Flag for Germany Weather for the Past 2 Weeks in Goslar, Lower Saxony, Germany

Now
55 °F

Sunny.


Feels Like: 51 °F
Forecast: 38 / 51 °F
Wind: 16 mph from Southwest

Location: Braunschweig Wolfsburg

Current Time: Apr 29, 2016 at 6:43:12 PM

Latest Report: Apr 29, 2016 at 5:50 PM


Visibility: 10 mi

Pressure: 30.01 "Hg

Humidity: 33%

Dew Point: 27 °F

Location of GoslarLocation

Historic Weather in Goslar — Graph

°F

Goslar Temperature Yesterday

Maximum temperature yesterday: 48 °F (at 2:50 PM)
Minimum temperature yesterday: 37 °F (at 6:50 AM)
Average temperature yesterday: 44 °F

High & Low Weather Summary for the Past Weeks

 TemperatureHumidityPressure
High59 °F (Apr 16, 1:50 PM)100% (Apr 22, 7:50 AM)30.42 "Hg (Apr 22, 7:50 AM)
Low32 °F (Apr 21, 6:50 AM)29% (Apr 21, 4:20 PM)29.45 "Hg (Apr 26, 6:50 AM)
Average47 °F64%29.91 "Hg
* Reported Apr 14 5:20 PM — Apr 29 5:20 PM, Goslar, Weather by CustomWeather, © 2016

Note: Actual official high and low records may vary slightly from our data, if they occured in-between our weather recording intervals... More about our weather records

Advertising

Goslar Weather History for the Previous 24 Hours

Scroll right to see more
 ConditionsComfort  
Time TempWeatherWind HumidityBarometerVisibility
5:20 PM
Fri, Apr 29
55 °FSunny.17 mph36%29.98 "Hg10 mi
4:50 PM55 °FPassing clouds.16 mph36%30.01 "HgN/A
4:20 PM55 °FSunny.16 mph33%30.01 "Hg10 mi
3:50 PM57 °FPassing clouds.15 mph33%30.01 "HgN/A
3:20 PM57 °FPassing clouds.17 mph39%30.01 "HgN/A
2:50 PM57 °FPassing clouds.17 mph36%30.01 "HgN/A
2:20 PM55 °FSunny.22 mph38%30.01 "Hg10 mi
1:50 PM55 °FPassing clouds.17 mph36%30.01 "HgN/A
1:20 PM55 °FSunny.18 mph36%30.01 "Hg10 mi
12:50 PM54 °FSunny.15 mph38%30.01 "Hg10 mi
12:20 PM54 °FSunny.18 mph35%30.01 "Hg10 mi
11:50 AM54 °FSunny.15 mph35%30.01 "Hg10 mi
11:20 AM52 °FSunny.17 mph44%30.01 "Hg10 mi
10:50 AM52 °FSunny.17 mph47%30.01 "Hg10 mi
10:20 AM50 °FSunny.13 mph54%30.01 "Hg10 mi
9:50 AM48 °FSunny.13 mph62%30.01 "Hg10 mi
9:20 AM48 °FSunny.12 mph62%30.01 "Hg10 mi
8:50 AM45 °FPassing clouds.10 mph66%30.01 "HgN/A
8:20 AM43 °FSunny.8 mph71%30.01 "Hg10 mi
7:50 AM39 °FSunny.9 mph75%29.98 "Hg10 mi
6:50 AM37 °FSunny.8 mph75%29.98 "Hg10 mi
8:50 PM
Thu, Apr 28
41 °FSunny.6 mph76%29.98 "Hg10 mi
8:20 PM45 °FSunny.No wind71%29.98 "Hg10 mi
7:50 PM46 °FSunny.3 mph66%29.98 "Hg10 mi
7:20 PM45 °FPartly sunny.5 mph71%29.98 "HgN/A
6:50 PM45 °FBroken clouds.8 mph71%29.95 "HgN/A
6:20 PM45 °FScattered clouds.8 mph76%29.95 "HgN/A
Weather by CustomWeather, © 2016

See weather overviewHow to use our weather pages